Location: Dehesa de la Cepeda
(40.6574°N, 4.3013°W)
Time: 10:49:45
(UTC+00:00)

Vanguard 2 Rocket - Pass Details

Date: 24 October 2021
Orbit: 555 x 3324 km, 32.9° (Epoch: 09 December)

Event Time Altitude Azimuth Distance (km) Brightness Sun altitude
Exits shadow 02:32:32 13° 170° (S) 5,508 10.7 -46.1°
Maximum altitude 02:38:46 16° 147° (SSE) 4,810 10.5 -45.0°
Drops below altitude 10° 02:45:49 10° 116° (ESE) 4,680 10.8 -43.9°
Sets 02:50:54 0° 96° (E) 5,151 11.4 -43.0°
